Powrót do katalogu

SL-12 R/B(2)

AktywnyGEO
NORAD 14086·ROCKET BODY·🇷🇺 Russia

Wystrzelony Mar 12, 1983 z Baikonur Cosmodrome

Loading…

TLE

ŚwieżeSource: Space-Track

Epoka: Sep 14, 2026, 16:33 UTC

1 14086U 83016F   26257.68984821 -.00000002  00000-0  00000-0 0  9998
2 14086   6.3979 296.1440 0016778 326.9850 198.1613  1.01101421123874

Śledź SL-12 R/B(2) w czasie rzeczywistym z AllMySat

Download on the App Store